, SD

(GMT )
Rapid City

Weather History for KRAP - April, 2013

Change the Weather History Date:

Friday, April 26, 2013

  Actual Average Record
Temperature  
Mean Temperature 54 °F 49 °F  
Max Temperature 71 °F 62 °F 89 °F (1952)
Min Temperature 36 °F 35 °F 20 °F (1950)
Degree Days  
Heating Degree Days 11 17  
Month to date heating degree days 800 539  
Since 1 July heating degree days 6757 6667  
Cooling Degree Days 0 0  
Month to date cooling degree days 0 0  
Year to date cooling degree days 0 0  
Growing Degree Days 5 (Base 50)    
Moisture  
Dew Point 28 °F    
Average Humidity 39    
Maximum Humidity 59    
Minimum Humidity 19    
Precipitation  
Precipitation 0.00 in 0.08 in 1.28 in (1986)
Month to date precipitation 3.01 1.45  
Year to date precipitation 4.44 3.12  
Snow  
Snow 0.00 in 0.20 in 6.80 in (1994)
Month to date snowfall 43.4 7.2  
Since 1 July snowfall 76.7 39.3  
Snow Depth T in    
Sea Level Pressure  
Sea Level Pressure 30.07 in    
Wind  
Wind Speed 6 mph (West)    
Max Wind Speed 14 mph    
Max Gust Speed 17 mph    
Visibility 10 miles    
Events      
T = Trace of Precipitation, MM = Missing Value Source: NWS Daily Summary

Daily Weather History Graph

Daily Weather History Graph

Search for Another Location

Airport or City:

Trip Planner

Search our weather history database for the weather conditions in past years. The results will help you decide how hot, cold, wet, or windy it might be!

Date:

Astronomy

Apr. 26, 2013 Rise Set
Actual Time 5:50 AM MDT 7:50 PM MDT
Civil Twilight 5:19 AM MDT 8:21 PM MDT
Nautical Twilight 4:41 AM MDT 8:59 PM MDT
Astronomical Twilight 3:59 AM MDT 9:41 PM MDT
Moon 9:18 PM MDT (4/26) 6:18 AM MDT (4/26)
Length of Visible Light 15h 01m
Length of Day
13h 59m
Full, 99% of the Moon is Illuminated
Apr 26
Full
May 2
Last Quarter
May 9
New
May 17
First Quarter
May 24
Full

Hourly Weather History & Observations

Time (MDT) Temp. Windchill Dew Point Humidity Pressure Visibility Wind Dir Wind Speed Gust Speed Precip Events Conditions
12:52 AM 43.0 °F 37.2 °F 26.1 °F 51% 29.95 in 10.0 mi WNW 10.4 mph - N/A   Clear
1:52 AM 43.0 °F 36.4 °F 26.1 °F 51% 29.96 in 10.0 mi NW 12.7 mph - N/A   Clear
2:52 AM 39.9 °F 35.8 °F 26.1 °F 58% 29.97 in 10.0 mi NW 5.8 mph - N/A   Clear
3:52 AM 39.9 °F 33.9 °F 25.0 °F 55% 30.00 in 10.0 mi WNW 9.2 mph - N/A   Clear
4:52 AM 41.0 °F 33.9 °F 25.0 °F 53% 30.01 in 10.0 mi WNW 12.7 mph - N/A   Clear
5:52 AM 41.0 °F 34.3 °F 25.0 °F 53% 30.04 in 10.0 mi WNW 11.5 mph - N/A   Clear
6:52 AM 45.0 °F 40.1 °F 26.1 °F 48% 30.06 in 10.0 mi WNW 9.2 mph - N/A   Clear
7:52 AM 52.0 °F - 27.0 °F 38% 30.09 in 10.0 mi WNW 6.9 mph - N/A   Clear
8:52 AM 57.0 °F - 28.9 °F 34% 30.10 in 10.0 mi SW 4.6 mph - N/A   Clear
9:52 AM 62.1 °F - 26.1 °F 25% 30.11 in 10.0 mi Calm Calm - N/A   Clear
10:52 AM 64.9 °F - 25.0 °F 22% 30.12 in 10.0 mi Calm Calm - N/A   Clear
11:52 AM 68.0 °F - 26.1 °F 21% 30.12 in 10.0 mi NE 8.1 mph - N/A   Partly Cloudy
12:52 PM 68.0 °F - 26.1 °F 21% 30.11 in 10.0 mi Variable 6.9 mph - N/A   Mostly Cloudy
1:52 PM 68.0 °F - 25.0 °F 20% 30.10 in 10.0 mi Calm Calm - N/A   Partly Cloudy
2:52 PM 70.0 °F - 27.0 °F 20% 30.10 in 10.0 mi West 9.2 mph - N/A   Partly Cloudy
3:52 PM 70.0 °F - 26.1 °F 19% 30.09 in 10.0 mi SSE 4.6 mph - N/A   Clear
4:52 PM 69.1 °F - 27.0 °F 21% 30.08 in 10.0 mi Variable 5.8 mph - N/A   Clear
5:52 PM 69.1 °F - 28.0 °F 22% 30.08 in 10.0 mi Variable 6.9 mph 16.1 mph N/A   Clear
6:52 PM 64.9 °F - 32.0 °F 29% 30.07 in 10.0 mi SSE 10.4 mph - N/A   Clear
7:52 PM 57.9 °F - 33.1 °F 39% 30.07 in 10.0 mi SE 6.9 mph - N/A   Clear
8:52 PM 53.1 °F - 33.1 °F 47% 30.09 in 10.0 mi SE 3.5 mph - N/A   Clear
9:52 PM 54.0 °F - 32.0 °F 43% 30.09 in 10.0 mi SW 4.6 mph - N/A   Clear
10:52 PM 52.0 °F - 30.9 °F 45% 30.08 in 10.0 mi SSW 5.8 mph - N/A   Clear
11:52 PM 48.0 °F - 30.0 °F 50% 30.08 in 10.0 mi SSE 3.5 mph - N/A   Clear